Regional Weather Roundup
Issued by NWS Bismarck, ND

Home | Current Version | Previous Version | Text Only | Print | Product List | Glossary On
Versions: 1 2 3 4 5 6 7 8 9 10 11 12 13 14 15 16 17 18 19 20 21 22 23 24 25 26 27 28 29 30 31 32 33 34 35 36 37 38 39 40 41 42 43 44 45 46 47 48 49 50
000
ASUS43 KBIS 251710
RWRBIS

NWR BROADCAST TEXT
NATIONAL WEATHER SERVICE BISMARCK ND
1100 AM CST THU DEC 25 2014

NOTE: "FAIR" INDICATES FEW OR NO CLOUDS BELOW 12,000 FEET WITH NO
SIGNIFICANT WEATHER AND/OR OBSTRUCTIONS TO VISIBILITY.


CITY           SKY/WX    TMP DP  RH WIND       PRES   REMARKS
WILLISTON      CLOUDY    26  21  81 NW14      29.84R WCI  14
MINOT          CLOUDY    26  21  81 NW13      29.77R WCI  15
MINOT AFB      MIX PCPN  26  26  99 NW15      29.78R WCI  14
BISMARCK       CLOUDY    29  24  82 W5        29.78R
DICKINSON      CLOUDY    27  23  86 NW13      29.76R WCI  16
GARRISON         N/A     26  22  84 NW20      29.77R WCI  12
HETTINGER ARPT CLOUDY    26  22  84 N13       29.78R WCI  15
JAMESTOWN      CLOUDY    24  20  84 N14       29.75R WCI  12
BEACH          LGT RAIN  23  23 100 N15       29.82R WCI  10
CARRINGTON     CLOUDY    25  25 100 MISG      29.76R
CROSBY         CLOUDY    25  23  93 NW18G24   29.83R WCI  11
HARVEY         CLOUDY    27  25  93 NW14      29.75R WCI  15
HAZEN          CLOUDY    27  23  86 N16       29.80R WCI  14
LINTON           N/A     28  28 100 N9        29.77R WCI  20
MANDAN         CLOUDY    27  25  93 NW7       29.78R WCI  19
OAKES            N/A     25  25 100 N14       29.75R WCI  13
RUGBY          CLOUDY    25  25 100 NW13      29.75R WCI  13
STANLEY        CLOUDY    25  25 100 NW16G25   29.78R WCI  12
TIOGA          MIX PCPN  23  23 100 NW21G26   29.82R WCI   8
WATFORD CITY   CLOUDY    25  21  86 NW8       29.82R WCI  16
$$

CITY           SKY/WX    TMP DP  RH WIND       PRES   REMARKS
GRAND FORKS    CLOUDY    28  24  85 NW8       29.72R WCI  20
GRAND FORKS AF CLOUDY    28  27  99 NW7       29.73R
DEVILS LAKE    CLOUDY    25  21  86 NW8       29.72R WCI  16
FARGO          CLOUDY    29  24  82 NW12      29.74R WCI  19
CANDO          CLOUDY    27  25  93 NW10      29.74R WCI  17
CAVALIER       CLOUDY    27  23  86 NW15      29.74R WCI  15
GWINNER        CLOUDY    27  27 100 CALM      29.76R
LANGDON        CLOUDY    25  23  93 N14       29.70R WCI  13
ROLLA          CLOUDY    25  25 100 N13       29.73R WCI  13
WALHALLA         N/A     27  27 100 NW14      29.74R WCI  15
$$

CITY           SKY/WX    TMP DP  RH WIND       PRES   REMARKS
ABERDEEN       CLOUDY    29  24  82 N12       29.75R WCI  19
MOBRIDGE       CLOUDY    30  24  78 N15       29.74R WCI  19
BUFFALO          N/A     26  22  84 N14       29.71R WCI  14
RAPID CITY     LGT SNOW  29  26  89 N25       29.70R BLWGSNOWWCI  14
GLASGOW        CLOUDY    24  16  71 N15       29.91R WCI  11
SIDNEY         CLOUDY    25  19  80 NW10      29.88R WCI  15
WOLF POINT     CLOUDY    26  18  71 NW14      29.91R WCI  14
GLENDIVE       CLOUDY    25  18  74 NW16G22   29.86R WCI  12
MILES CITY     CLOUDY    25  20  81 N17       29.86R WCI  12
BAKER          CLOUDY    25  22  88 N10       29.81R WCI  15
$$

CITY           SKY/WX    TMP DP  RH WIND       PRES   REMARKS
BILLINGS       CLOUDY    25  23  92 NE6       29.85R WCI  18
GREAT FALLS    CLOUDY    24  20  84 CALM      29.92R
REGINA         CLOUDY    16  12  86 NW16G23   29.87R WCI   0
ESTEVAN        FLURRIES  23  19  86 NW15G22   29.81R WCI  10
$$




USA.gov is the U.S. government's official web portal to all federal, state and local government web resources and services.